Regional Weather Roundup
Issued by NWS

Home | Current Version | Previous Version | Text Only | Print | Product List | Glossary On
Versions: 1 2 3 4 5 6 7 8 9 10 11 12 13 14 15 16 17 18 19 20 21 22 23 24 25 26 27 28 29 30 31 32 33 34 35 36 37 38 39 40 41 42 43 44 45 46 47 48 49 50
000
ASUS45 KBOU 271607
RWRCO

WEATHER ROUNDUP FOR COLORADO
NATIONAL WEATHER SERVICE DENVER/BOULDER CO
900 AM MST FRI FEB 27 2015

NOTE: "FAIR" INDICATES FEW OR NO CLOUDS BELOW 12000 FEET WITH NO
SIGNIFICANT WEATHER AND/OR OBSTRUCTIONS TO VISIBILITY.

COZ001>005-013-030-031-271700-
...NORTHWEST COLORADO...

CITY           SKY/WX    TMP DP  RH WIND       PRES   REMARKS
CRAIG          CLOUDY    14   8  77 CALM      29.89F HAZE
HAYDEN         CLOUDY    14   9  79 W3        29.86S
MEEKER         CLOUDY    16  12  84 CALM      29.86S
MOUNT WERNER   NOT AVBL
STEAMBOAT SPGS CLOUDY    12   6  77 CALM      29.84S
WALDEN         CLOUDY     0  -8  71 CALM      29.80S VSB<1/4
$$

COZ006>008-011-271700-
...WEST CENTRAL VALLEYS...

CITY           SKY/WX    TMP DP  RH WIND       PRES   REMARKS
GRAND JUNCTION FLURRIES  29  28  96 SW3       29.85R
MONTROSE       PTSUNNY   26  22  84 NW5       29.85R WCI  20
EAGLE          LGT SNOW  27  25  93 CALM      29.86R FOG
RIFLE          CLOUDY    26  18  71 CALM      29.86R
DELTA          SNOW      29  28  93 CALM      29.85S VSB 1/4
NUCLA          PTSUNNY   32  25  74 S6        29.88S WCI  26
$$

COZ017>023-064>068-271700-
...SOUTHWEST COLORADO...

CITY           SKY/WX    TMP DP  RH WIND       PRES   REMARKS
DURANGO        CLOUDY    26  26 100 CALM      29.86S
CORTEZ         CLOUDY    28  25  88 E6        29.87S WCI  22
PAGOSA SPRINGS CLOUDY    26  25  94 SW6       29.85R WCI  19
TELLURIDE      MOSUNNY   21  16  79 CALM      29.80R
WOLF CREEK PAS SNOW      10   9  92 SW23G35   29.76S VSB 1/4 WCI -10
$$

COZ009-010-012-014-032>034-037-058>063-271700-
...CENTRAL COLORADO...

CITY           SKY/WX    TMP DP  RH WIND       PRES   REMARKS
ASPEN          LGT SNOW  21  18  88 S3        29.76S FOG
BUENA VISTA    CLOUDY     2  -5  72 CALM      29.87S
COPPER MTN     LGT SNOW  10   3  72 W12G20    29.68R WCI  -4
BERTHOUD PASS  CLOUDY     0  -6  78 NW15      29.65R WCI -20
COTTONWOOD PAS CLOUDY     9   3  78 CALM      29.75R
GUNNISON       SUNNY     16  10  79 SE3       29.82S
KREMMLING      LGT SNOW  12   3  67 CALM      29.85S
LEADVILLE      LGT SNOW   2  -1  88 CALM      29.72S FOG
SALIDA         CLOUDY     8   1  73 CALM      29.97F
SUNLIGHT       LGT SNOW N/A N/A N/A CALM        N/A
WILKERSON PASS MOSUNNY   10   5  79 W5        29.71S WCI   2
$$

COZ069>075-271700-
...SAN LUIS VALLEY/SANGRE DE CRISTO MOUNTAINS...

CITY           SKY/WX    TMP DP  RH WIND       PRES   REMARKS
ALAMOSA        CLOUDY    17  11  77 SW5       29.84R HAZE    WCI  10
LA VETA PASS   HVY SNOW  10   7  85 MISG      29.75S VSB 1/4
SAGUACHE       LGT SNOW  18  14  86 SE3       29.85R VSB 1
$$

COZ035-036-038>040-271700-
...NORTHERN COLORADO FRONT RANGE...

CITY           SKY/WX    TMP DP  RH WIND       PRES   REMARKS
DENVER INTL AP MOSUNNY    4  -2  76 S8        30.01S WCI  -9
DMNS CITY PARK   N/A     12   8  87 N5        30.00F WCI   4
AURORA         MOSUNNY   10   0  64 S13       29.99S WCI  -5
FRONT RANGE AP MOSUNNY   12   5  73 S14       30.01  WCI  -3
ERIE MUNI ARPT LGT SNOW N/A N/A N/A CALM      30.04S VSB 1
BOULDER MUN AP SUNNY     10   5  79 CALM      30.02S
CENTENNIAL     PTSUNNY    8   1  73 S9        29.97S WCI  -5
BROOMFIELD     CLOUDY     9   7  92 N3        30.00S FOG
FORT COLLINS   MOSUNNY    5   1  85 CALM      30.05S
LONGMONT       SUNNY     14   4  65 CALM      30.06S
$$

COZ041-046-047-076>085-087-088-271700-
...PIKES PEAK/PALMER DIVIDE AND SOUTHERN FOOTHILLS...

CITY           SKY/WX    TMP DP  RH WIND       PRES   REMARKS
COLO. SPRINGS  LGT SNOW   7   4  87 SE7       30.00S FOG     WCI  -5
A. F. ACADEMY  CLOUDY     7   0  73 SE13      29.94F WCI -10
ELLICOTT       NOT AVBL
FALCON         LGT SNOW   5   2  87 S12       29.95S WCI -11
FORT CARSON    LGT SNOW   8   4  87 SE2       30.01S VSB 1
LIMON          MIX PCPN   7   3  84 SE24      30.07S FOG     WCI -14
MONUMENT HILL  HAZE       5   0  78 S20       29.88F VSB 3/4 WCI -15
TRINIDAD       PTSUNNY   13   7  77 NE5       30.01S WCI   5
$$

COZ042>045-048>051-090-091-271700-
...NORTHEAST COLORADO...

CITY           SKY/WX    TMP DP  RH WIND       PRES   REMARKS
GREELEY ARPT   PTSUNNY   12   0  57 SE9       30.06F WCI   0
AKRON          CLOUDY    11   6  81 SE21      30.13S HAZE    WCI  -8
BURLINGTON     LGT SNOW  12   6  77 S22       30.21F VSB 1   WCI  -7
WRAY           LGT SNOW  16   9  75 SE17      30.25F WCI   0
STERLING       CLOUDY    14   9  79 S16       30.18S WCI  -2
HOLYOKE        NOT AVBL
FORT MORGAN    CLOUDY    14   7  75 SE13G21   30.13S WCI  -1
$$

COZ086-089-092>099-271700-
...SOUTHEAST COLORADO...

CITY           SKY/WX    TMP DP  RH WIND       PRES   REMARKS
PUEBLO         LGT SNOW  12  10  92 E7        30.09S FOG     WCI   1
LA JUNTA       CLOUDY    15   7  70 SE18      30.16R WCI  -2
LAMAR          CLOUDY    14   8  77 SE17G28   30.24S HAZE    WCI  -3
SPRINGFIELD      N/A      9   6  88 SE22      30.19S WCI -11
$$



USA.gov is the U.S. government's official web portal to all federal, state and local government web resources and services.